EW5586 Weather Reports


time (UTC)temp
F
wind
direction
speed
knots
gust
knots
rain 1hr
in
rain 24hr
in
rain mn
in
humidity
%
barometer
mb
20260505221354 61 269 2.6 9.6 0.00 0.00 0.00 58 1004.4
20260505220847 61 244 1.7 6.1 0.00 0.00 0.00 57 1004.2
20260505220341 61 295 1.7 13.0 0.00 0.00 0.00 59 1004.4
20260505215834 61 214 1.7 13.0 0.00 0.00 0.00 60 1004.2
20260505215329 61 300 1.7 6.1 0.00 0.00 0.00 60 1004.1
20260505213809 62 0 2.6 8.7 0.00 0.00 0.00 61 1003.6
20260505213303 62 294 2.6 13.9 0.00 0.00 0.00 61 1003.3
20260505212758 62 236 2.6 13.9 0.00 0.00 0.00 62 1003.3
20260505212252 62 281 3.5 15.6 0.00 0.00 0.00 62 1003.5
20260505211240 63 316 2.6 13.0 0.00 0.00 0.00 62 1003.5
20260505210733 63 286 2.6 13.0 0.00 0.00 0.00 63 1003.3
20260505210227 63 117 3.5 16.5 0.00 0.00 0.00 62 1003.3
20260505205722 64 0 3.5 16.5 0.00 0.00 0.00 62 1003.2
20260505204203 67 127 3.5 14.8 0.00 0.00 0.00 64 1002.7
20260505203657 67 16 2.6 10.4 0.00 0.00 0.00 64 1002.5
20260505203151 67 244 1.7 8.7 0.00 0.00 0.00 64 1002.3
20260505202645 68 281 2.6 14.8 0.00 0.00 0.00 64 1002.2
20260505202140 68 213 3.5 14.8 0.00 0.00 0.00 62 1002.3
20260505201634 68 244 4.3 15.6 0.00 0.00 0.00 62 1002.2
20260505201127 69 188 5.2 15.6 0.00 0.00 0.00 62 1002.0
20260505200621 69 307 5.2 14.8 0.00 0.00 0.00 61 1002.1
20260505200115 69 234 4.3 14.8 0.00 0.00 0.00 60 1002.0
20260505195609 69 244 3.5 11.3 0.00 0.00 0.00 61 1001.9
20260505195106 69 216 5.2 19.1 0.00 0.00 0.00 60 1001.8
20260505194605 69 241 5.2 19.1 0.00 0.00 0.00 59 1001.9
20260505194106 70 0 5.2 15.6 0.00 0.00 0.00 58 1001.9
20260505193603 70 223 5.2 15.6 0.00 0.00 0.00 58 1001.9
20260505193101 70 250 6.1 18.2 0.00 0.00 0.00 57 1001.6
20260505192101 70 232 8.7 22.6 0.00 0.00 0.00 56 1001.6
20260505191600 71 219 7.0 22.6 0.00 0.00 0.00 55 1001.7
20260505191059 71 235 7.0 22.6 0.00 0.00 0.00 55 1001.5
20260505190602 71 287 7.0 23.5 0.00 0.00 0.00 54 1001.2
20260505184559 71 221 10.4 28.7 0.00 0.00 0.00 55 1001.3
20260505184100 70 214 10.4 26.9 0.00 0.00 0.00 58 1001.4
20260505183559 70 221 12.2 24.3 0.00 0.00 0.00 57 1001.1
20260505182559 70 235 13.0 27.8 0.00 0.00 0.00 56 1001.4
20260505182055 70 234 10.4 27.8 0.00 0.00 0.00 56 1001.3
20260505181556 69 225 8.7 20.0 0.00 0.00 0.00 58 1001.3
20260505181055 69 302 8.7 22.6 0.00 0.00 0.00 59 1001.3
20260505180556 69 225 8.7 22.6 0.00 0.00 0.00 59 1001.3
20260505180108 69 147 7.8 21.7 0.00 0.00 0.00 59 1001.1
20260505175556 69 196 8.7 21.7 0.00 0.00 0.00 62 1001.1
20260505175055 68 230 9.6 22.6 0.00 0.00 0.00 63 1001.3
20260505174054 67 231 9.6 22.6 0.00 0.00 0.00 65 1001.6
20260505173547 66 236 9.6 22.6 0.00 0.00 0.00 66 1001.6
20260505173041 66 203 9.6 21.7 0.00 0.00 0.00 66 1001.5
20260505172535 65 0 8.7 21.7 0.00 0.00 0.00 67 1001.6
20260505171523 64 251 13.9 22.6 0.00 0.00 0.00 68 1001.7
20260505170511 65 195 12.2 28.7 0.00 0.00 0.00 66 1001.7
20260505170006 65 193 12.2 28.7 0.00 0.00 0.00 66 1001.8
20260505165459 65 244 13.0 26.1 0.00 0.00 0.00 66 1001.5
20260505164953 65 188 13.0 23.5 0.00 0.00 0.00 66 1001.4
20260505163941 65 201 13.0 26.1 0.00 0.00 0.00 67 1001.5
20260505163435 65 220 13.0 26.1 0.00 0.00 0.00 67 1001.5
20260505162930 65 234 12.2 20.9 0.00 0.00 0.00 68 1001.3
20260505162423 65 175 11.3 24.3 0.00 0.00 0.00 66 1001.2
20260505161917 65 225 10.4 24.3 0.00 0.00 0.00 67 1001.0
20260505161411 65 217 9.6 19.1 0.00 0.00 0.00 67 1001.2
20260505160905 65 199 10.4 19.1 0.00 0.00 0.00 67 1001.2
20260505160359 65 240 11.3 18.2 0.00 0.00 0.00 66 1001.0
20260505153323 68 219 12.2 22.6 0.00 0.00 0.00 64 1001.1
20260505152817 67 198 13.9 24.3 0.00 0.00 0.00 65 1001.2
20260505152311 66 221 14.8 24.3 0.00 0.00 0.00 65 1001.1
20260505151805 66 201 13.9 21.7 0.00 0.00 0.00 67 1001.0
20260505151304 66 198 14.8 26.1 0.00 0.00 0.00 65 1000.9
20260505150806 66 231 13.9 26.1 0.00 0.00 0.00 66 1000.8
20260505150303 64 211 11.3 17.4 0.00 0.00 0.00 70 1000.8
20260505130254 57 222 8.7 13.9 0.00 0.00 0.00 83 1000.3
20260505124751 58 0 9.6 15.6 0.00 0.00 0.00 82 1000.4
20260505124251 58 221 9.6 15.6 0.00 0.00 0.00 83 1000.4
20260505123751 57 205 9.6 16.5 0.00 0.00 0.00 86 1000.5
20260505123250 55 219 8.7 16.5 0.00 0.00 0.00 86 1000.5
20260505122753 56 213 7.8 15.6 0.00 0.00 0.00 81 1000.6
20260505122251 58 0 8.7 15.6 0.00 0.00 0.00 79 1000.7
20260505121751 59 214 8.7 16.5 0.00 0.00 0.00 80 1000.6
20260505121251 59 207 8.7 16.5 0.00 0.00 0.00 81 1000.6
20260505120247 58 209 10.4 15.6 0.00 0.00 0.00 81 1000.6
20260505115747 58 218 10.4 15.6 0.00 0.00 0.00 83 1000.6
20260505115247 58 198 9.6 13.9 0.00 0.00 0.00 83 1000.5
20260505114747 58 229 8.7 13.9 0.00 0.00 0.00 83 1000.4
20260505113747 58 0 8.7 13.9 0.00 0.00 0.00 87 1000.5
20260505113248 56 211 8.7 13.9 0.00 0.00 0.00 88 1000.5
20260505112747 55 207 8.7 14.8 0.00 0.00 0.00 87 1000.6
20260505112248 55 181 7.8 14.8 0.00 0.00 0.00 89 1000.5
20260505111743 55 208 8.7 13.0 0.00 0.00 0.00 87 1000.5
20260505111244 56 200 8.7 13.0 0.00 0.00 0.00 89 1000.5
20260505110743 55 198 7.0 10.4 0.00 0.00 0.00 88 1000.4
20260505110243 55 213 7.0 9.6 0.00 0.00 0.00 87 1000.4
20260505102145 0 0.0 0.0 0.00 0.00 0.00 1000.4
20260505101551 0 0.0 0.0 0.00 0.00 0.00 1000.0
20260505101049 0 0.0 0.0 0.00 0.00 0.00 999.9
20260505100546 0 0.0 0.0 0.00 0.00 0.00 1000.1
20260505100047 0 0.0 0.0 0.00 0.00 0.00 1000.1
20260505095541 0 0.0 0.0 0.00 0.00 0.00 1000.1
20260505094949 0 0.0 0.0 0.00 0.00 0.00 1000.1
20260505094446 0 0.0 0.0 0.00 0.00 0.00 1000.3
20260505093945 0 0.0 0.0 0.00 0.00 0.00 1000.2
20260505093435 0 0.0 0.0 0.00 0.00 0.00 1000.3
20260505092844 0 0.0 0.0 0.00 0.00 0.00 1000.2
20260505092343 0 0.0 0.0 0.00 0.00 0.00 1000.2
20260505091751 0 0.0 0.0 0.00 0.00 0.00 1000.1
20260505091245 0 0.0 0.0 0.00 0.00 0.00 1000.1
20260505090743 0 0.0 0.0 0.00 0.00 0.00 1000.2
20260505085636 0 0.0 0.0 0.00 0.00 0.00 1000.4
20260505085041 57 205 8.7 13.0 0.00 0.00 0.00 75 1000.5
20260505084451 57 205 8.7 13.0 0.00 0.00 0.00 75 1000.7
20260505083935 57 205 8.7 13.0 0.00 0.00 0.00 75 1000.7
20260505082932 57 194 9.6 13.9 0.00 0.00 0.00 76 1000.7
20260505082433 57 197 9.6 13.9 0.00 0.00 0.00 76 1000.8
20260505081933 56 227 8.7 13.9 0.00 0.00 0.00 78 1000.8
20260505081432 56 238 8.7 13.0 0.00 0.00 0.00 80 1000.8
20260505080933 56 187 9.6 13.9 0.00 0.00 0.00 81 1000.9
20260505080432 56 224 8.7 13.9 0.00 0.00 0.00 82 1000.9
20260505075933 56 215 8.7 13.9 0.00 0.00 0.00 80 1001.0
20260505075433 56 0 7.8 14.8 0.00 0.00 0.00 82 1000.9
20260505074926 56 0 8.7 14.8 0.00 0.00 0.00 82 1000.9
20260505074421 55 219 10.4 16.5 0.00 0.00 0.00 83 1001.0
20260505073914 55 191 11.3 16.5 0.00 0.00 0.00 81 1000.9
20260505072357 55 214 9.6 14.8 0.00 0.00 0.00 79 1000.8
20260505071850 54 209 9.6 13.9 0.00 0.00 0.00 77 1000.9
20260505071345 54 205 9.6 14.8 0.00 0.00 0.00 75 1000.9
20260505070838 54 0 8.7 13.0 0.00 0.00 0.00 75 1000.8
20260505070332 54 198 8.7 13.0 0.00 0.00 0.00 73 1000.8
20260505065320 57 211 8.7 13.0 0.00 0.00 0.00 65 1000.6
20260505064308 57 224 7.0 9.6 0.00 0.00 0.00 64 1000.5
20260505063802 57 232 7.0 9.6 0.00 0.00 0.00 64 1000.5
20260505063256 57 221 7.0 10.4 0.00 0.00 0.00 64 1000.5
20260505062751 58 202 7.0 10.4 0.00 0.00 0.00 63 1000.6
20260505062244 57 192 6.1 9.6 0.00 0.00 0.00 64 1000.6
20260505060726 57 206 6.1 8.7 0.00 0.00 0.00 64 1000.6
20260505060220 57 202 7.0 10.4 0.00 0.00 0.00 63 1000.6
20260505055714 58 192 7.0 10.4 0.00 0.00 0.00 63 1000.7
20260505055209 58 215 6.1 8.7 0.00 0.01 0.00 63 1000.7
20260505054702 58 205 5.2 7.0 0.00 0.01 0.00 63 1000.8
20260505054156 57 192 5.2 7.8 0.00 0.01 0.00 63 1000.7
20260505053650 58 209 5.2 7.8 0.00 0.01 0.00 63 1000.7
20260505053145 57 209 4.3 7.0 0.00 0.01 0.00 64 1000.8
20260505052638 57 205 4.3 7.0 0.00 0.01 0.00 64 1000.8
20260505052135 57 182 4.3 7.0 0.00 0.01 0.00 64 1000.9
20260505051634 56 191 3.5 7.0 0.00 0.01 0.00 66 1000.9
20260505051135 55 225 2.6 4.3 0.00 0.01 0.00 70 1000.9
20260505050130 54 213 1.7 3.5 0.00 0.01 0.00 73 1000.9
20260505041619 55 216 3.5 4.3 0.00 0.01 0.00 71 1001.5
20260505041119 56 211 2.6 4.3 0.00 0.01 0.00 70 1001.6
20260505040619 57 211 2.6 5.2 0.00 0.01 0.00 67 1001.5
20260505040118 57 227 2.6 5.2 0.00 0.01 0.00 65 1001.6
20260505035114 56 225 2.6 5.2 0.00 0.01 0.01 68 1001.5
20260505034613 57 244 2.6 4.3 0.00 0.01 0.01 67 1001.5
20260505034112 58 200 3.5 7.0 0.00 0.01 0.01 63 1001.6
20260505033607 60 193 4.3 7.8 0.00 0.01 0.01 58 1001.5
20260505033102 61 217 4.3 8.7 0.00 0.01 0.01 57 1001.5
20260505032554 61 214 4.3 8.7 0.00 0.01 0.01 58 1001.6
20260505031046 60 177 4.3 8.7 0.00 0.01 0.01 58 1001.8
20260505030546 60 221 3.5 7.0 0.00 0.01 0.01 59 1001.8
20260505030047 60 211 4.3 7.8 0.00 0.01 0.01 60 1001.7
20260505025544 60 221 5.2 8.7 0.00 0.01 0.01 61 1001.8
20260505025044 59 197 6.1 8.7 0.00 0.01 0.01 62 1001.9
20260505024544 59 0 6.1 8.7 0.00 0.01 0.01 63 1001.9
20260505024044 59 193 6.1 8.7 0.00 0.01 0.01 62 1001.9
20260505023544 60 215 5.2 8.7 0.00 0.01 0.01 62 1001.9
20260505023044 59 0 5.2 7.8 0.00 0.01 0.01 62 1002.0
20260505022544 59 222 5.2 7.8 0.00 0.01 0.01 63 1001.9
20260505022045 59 232 6.1 7.8 0.00 0.01 0.01 63 1002.0
20260505021545 60 187 5.2 7.8 0.00 0.01 0.01 62 1002.0
20260505021044 60 194 5.2 8.7 0.00 0.01 0.01 62 1002.1
20260505020545 60 207 5.2 8.7 0.00 0.01 0.01 62 1002.2
20260505020045 60 231 4.3 7.8 0.00 0.01 0.01 63 1002.1
20260505015538 59 217 4.3 7.8 0.00 0.01 0.01 64 1002.1
20260505015038 59 216 4.3 8.7 0.00 0.01 0.01 66 1002.2
20260505014539 58 0 5.2 8.7 0.00 0.01 0.01 68 1002.2
20260505014039 57 237 4.3 7.0 0.00 0.01 0.01 71 1002.3
20260505013538 56 219 3.5 7.0 0.00 0.01 0.01 73 1002.2
20260505013038 56 201 3.5 5.2 0.00 0.01 0.01 73 1002.2
20260505012538 57 0 4.3 7.0 0.00 0.01 0.01 70 1002.3
20260505012038 58 196 5.2 7.8 0.00 0.01 0.01 68 1002.4
20260505011538 59 209 5.2 7.8 0.00 0.01 0.01 66 1002.4
20260505011038 60 227 5.2 8.7 0.00 0.01 0.01 64 1002.4
20260505010538 60 198 6.1 8.7 0.00 0.01 0.01 63 1002.4
20260505010034 60 225 6.1 10.4 0.00 0.01 0.01 63 1002.3
20260505005035 60 220 5.2 9.6 0.00 0.01 0.01 62 1002.2
20260505004535 61 218 6.1 8.7 0.00 0.01 0.01 62 1002.2
20260505003534 59 225 5.2 9.6 0.00 0.01 0.01 65 1002.2
20260505003034 58 230 5.2 7.0 0.00 0.01 0.01 67 1002.0
20260505002534 58 194 5.2 7.0 0.00 0.01 0.01 68 1002.1
20260505002036 58 0 5.2 7.0 0.00 0.01 0.01 69 1002.1
20260505001534 57 219 5.2 7.0 0.00 0.01 0.01 70 1002.1
20260505001034 57 0 5.2 7.0 0.00 0.01 0.01 71 1002.0
20260505000535 56 215 5.2 7.0 0.00 0.01 0.01 73 1002.0
20260505000035 55 0 4.3 7.0 0.00 0.01 0.01 75 1001.9
20260504235534 54 219 3.5 7.0 0.00 0.01 0.01 75 1001.9
20260504235035 55 192 3.5 5.2 0.00 0.01 0.01 74 1001.9
20260504234535 56 0 3.5 7.0 0.00 0.01 0.01 72 1001.8
20260504233534 57 216 5.2 10.4 0.00 0.01 0.01 69 1001.8
20260504233034 58 211 6.1 10.4 0.00 0.01 0.01 68 1001.9
20260504232535 59 0 7.0 9.6 0.00 0.01 0.01 66 1001.9
20260504232034 58 213 6.1 9.6 0.00 0.01 0.01 67 1002.0
20260504231535 58 221 4.3 8.7 0.00 0.01 0.01 66 1001.9
20260504231032 59 208 4.3 8.7 0.00 0.01 0.01 67 1001.9
20260504230532 58 197 6.1 9.6 0.00 0.01 0.01 68 1001.9
20260504230032 58 213 7.0 10.4 0.00 0.01 0.01 68 1001.9
20260504225033 58 201 7.8 12.2 0.00 0.01 0.01 67 1001.9
20260504224531 59 215 7.8 12.2 0.00 0.01 0.01 64 1002.0
20260504223522 60 233 8.7 13.9 0.00 0.01 0.01 62 1002.1
20260504223022 61 0 7.8 16.5 0.00 0.01 0.01 60 1002.2
20260504222521 62 237 8.7 16.5 0.00 0.01 0.01 59 1002.2
20260504222020 62 213 10.4 16.5 0.00 0.01 0.01 59 1002.2